QPF
0.00 0.00 0.00 0.00 0.00 0.00 0.01 0.01 0.00 0.00 0.00 0.00 0.00 0.00 0.00 0.00 0.00 0.00 0.00 0.00 0.00 0.00 0.00 0.01 0.01 0.01 0.01 0.01 0.00 0.00 0.00 0.01 0.01 0.00 0.00 0.00 0.00 0.01 0.01 0.00 0.00 0.00 0.00
0.00 0.00 0.00 0.00 0.00 0.00 0.01 0.01 0.01 0.00 0.00 0.00 0.00 0.00 0.00 0.00 0.00 0.00 0.00 0.00 0.00 0.00 0.00 0.00 0.01 0.01 0.00 0.00 0.00 0.00 0.00 0.00 0.01 0.01 0.02 0.02 0.01 0.01 0.00 0.00 0.00 0.00 0.00
0.00 0.00 0.00 0.00 0.00 0.00 0.00 0.00 0.00 0.00 0.00 0.00 0.00 0.00 0.00 0.00 0.00 0.00 0.00 0.00 0.00 0.00 0.00 0.00 0.00 0.00 0.00 0.00 0.00 0.00 0.00 0.01 0.02 0.02 0.04 0.05 0.03 0.01 0.00 0.00 0.00 0.00 0.01
0.00 0.00 0.00 0.00 0.00 0.00 0.00 0.00 0.00 0.00 0.00 0.00 0.00 0.00 0.00 0.00 0.00 0.00 0.00 0.00 0.00 0.00 0.00 0.00 0.00 0.00 0.00 0.00 0.00 0.01 0.01 0.01 0.02 0.02 0.02 0.02 0.04 0.02 0.01 0.00 0.00 0.01 0.01
0.00 0.00 0.00 0.00 0.00 0.00 0.00 0.00 0.00 0.00 0.00 0.00 0.00 0.00 0.00 0.00 0.00 0.00 0.00 0.00 0.00 0.00 0.00 0.00 0.00 0.00 0.00 0.00 0.00 0.01 0.02 0.02 0.01 0.01 0.00 0.01 0.06 0.04 0.01 0.01 0.01 0.01 0.01
0.00 0.00 0.00 0.00 0.00 0.00 0.00 0.00 0.00 0.00 0.00 0.00 0.00 0.00 0.00 0.00 0.00 0.00 0.00 0.00 0.00 0.00 0.00 0.00 0.00 0.00 0.00 0.00 0.01 0.01 0.02 0.02 0.01 0.01 0.01 0.01 0.03 0.03 0.02 0.02 0.02 0.02 0.02
0.00 0.00 0.00 0.00 0.00 0.00 0.00 0.00 0.00 0.00 0.00 0.00 0.00 0.00 0.00 0.00 0.00 0.00 0.00 0.00 0.00 0.00 0.00 0.00 0.00 0.00 0.00 0.00 0.01 0.01 0.03 0.03 0.02 0.01 0.02 0.01 0.02 0.03 0.03 0.04 0.04 0.03 0.03
0.01 0.00 0.00 0.00 0.00 0.00 0.00 0.00 0.00 0.00 0.00 0.00 0.00 0.00 0.00 0.00 0.00 0.00 0.00 0.00 0.00 0.00 0.01 0.00 0.00 0.00 0.00 0.00 0.01 0.01 0.02 0.02 0.01 0.01 0.01 0.02 0.03 0.03 0.04 0.06 0.06 0.05 0.05
0.02 0.02 0.02 0.02 0.01 0.01 0.00 0.00 0.00 0.00 0.00 0.00 0.00 0.00 0.00 0.00 0.00 0.00 0.00 0.00 0.00 0.00 0.01 0.00 0.00 0.00 0.00 0.00 0.00 0.01 0.01 0.02 0.02 0.01 0.01 0.02 0.02 0.04 0.05 0.06 0.05 0.05 0.06
0.03 0.06 0.09 0.05 0.02 0.01 0.01 0.01 0.01 0.01 0.01 0.00 0.00 0.00 0.00 0.00 0.00 0.00 0.00 0.00 0.00 0.00 0.00 0.00 0.00 0.00 0.00 0.00 0.00 0.00 0.01 0.01 0.01 0.01 0.02 0.02 0.03 0.06 0.08 0.08 0.07 0.05 0.05
0.07 0.08 0.08 0.06 0.03 0.02 0.01 0.01 0.02 0.02 0.01 0.01 0.01 0.01 0.01 0.00 0.00 0.00 0.00 0.00 0.00 0.00 0.01 0.00 0.00 0.01 0.00 0.00 0.00 0.00 0.00 0.00 0.01 0.03 0.03 0.03 0.04 0.08 0.12 0.11 0.09 0.07 0.05
0.07 0.11 0.13 0.10 0.07 0.04 0.03 0.03 0.04 0.02 0.01 0.02 0.02 0.03 0.03 0.03 0.03 0.01 0.01 0.00 0.01 0.01 0.01 0.01 0.01 0.01 0.01 0.01 0.00 0.00 0.00 0.00 0.01 0.01 0.01 0.01 0.03 0.07 0.12 0.13 0.10 0.09 0.08
0.05 0.07 0.07 0.11 0.10 0.09 0.11 0.12 0.11 0.09 0.07 0.06 0.08 0.08 0.07 0.04 0.04 0.02 0.01 0.01 0.01 0.01 0.01 0.01 0.01 0.01 0.01 0.01 0.01 0.00 0.00 0.00 0.00 0.00 0.00 0.01 0.02 0.06 0.10 0.13 0.13 0.12 0.09
0.05 0.07 0.09 0.09 0.10 0.12 0.15 0.19 0.23 0.23 0.19 0.17 0.13 0.11 0.08 0.10 0.11 0.06 0.03 0.02 0.02 0.02 0.03 0.02 0.02 0.01 0.01 0.01 0.01 0.00 0.00 0.00 0.00 0.00 0.01 0.01 0.01 0.04 0.08 0.11 0.13 0.13 0.12
0.05 0.09 0.12 0.13 0.13 0.16 0.19 0.20 0.18 0.22 0.24 0.30 0.22 0.17 0.17 0.16 0.15 0.11 0.06 0.06 0.04 0.04 0.04 0.04 0.03 0.02 0.02 0.02 0.01 0.01 0.01 0.01 0.01 0.01 0.01 0.01 0.00 0.02 0.05 0.10 0.13 0.12 0.12
0.06 0.11 0.14 0.15 0.17 0.21 0.29 0.32 0.27 0.25 0.22 0.19 0.23 0.20 0.23 0.23 0.17 0.12 0.09 0.09 0.08 0.08 0.08 0.06 0.04 0.04 0.04 0.05 0.04 0.03 0.02 0.02 0.02 0.02 0.02 0.02 0.01 0.01 0.03 0.09 0.13 0.15 0.17
0.09 0.14 0.19 0.21 0.21 0.21 0.29 0.41 0.46 0.38 0.34 0.27 0.21 0.22 0.28 0.20 0.14 0.11 0.12 0.12 0.11 0.11 0.10 0.08 0.07 0.07 0.06 0.06 0.06 0.04 0.03 0.03 0.04 0.03 0.03 0.03 0.03 0.02 0.03 0.06 0.10 0.13 0.15
0.09 0.13 0.18 0.23 0.23 0.21 0.24 0.31 0.40 0.39 0.38 0.39 0.32 0.25 0.24 0.20 0.16 0.17 0.17 0.14 0.13 0.12 0.12 0.11 0.11 0.11 0.09 0.07 0.06 0.04 0.03 0.04 0.04 0.03 0.03 0.03 0.04 0.04 0.04 0.04 0.05 0.08 0.11
0.09 0.10 0.12 0.17 0.21 0.21 0.25 0.31 0.37 0.38 0.35 0.36 0.34 0.31 0.27 0.23 0.22 0.21 0.20 0.16 0.14 0.13 0.13 0.12 0.11 0.11 0.11 0.09 0.07 0.05 0.03 0.03 0.04 0.03 0.03 0.02 0.03 0.04 0.04 0.03 0.02 0.04 0.06
0.07 0.09 0.11 0.16 0.22 0.29 0.33 0.33 0.33 0.35 0.32 0.31 0.30 0.29 0.28 0.26 0.26 0.25 0.22 0.18 0.16 0.14 0.13 0.11 0.11 0.10 0.10 0.09 0.07 0.05 0.04 0.03 0.03 0.03 0.02 0.02 0.02 0.02 0.02 0.02 0.03 0.03 0.03
0.06 0.09 0.11 0.14 0.19 0.23 0.28 0.29 0.32 0.32 0.30 0.29 0.30 0.28 0.25 0.25 0.22 0.21 0.20 0.16 0.16 0.14 0.10 0.08 0.08 0.08 0.07 0.06 0.06 0.06 0.05 0.04 0.02 0.02 0.01 0.01 0.01 0.01 0.01 0.02 0.03 0.03 0.03
0.05 0.07 0.09 0.12 0.14 0.17 0.20 0.23 0.30 0.31 0.31 0.30 0.27 0.25 0.23 0.23 0.23 0.23 0.21 0.16 0.14 0.11 0.08 0.07 0.06 0.05 0.04 0.03 0.05 0.05 0.06 0.04 0.03 0.01 0.01 0.01 0.01 0.01 0.01 0.02 0.02 0.03 0.03
0.04 0.06 0.08 0.10 0.12 0.17 0.20 0.22 0.29 0.30 0.30 0.30 0.25 0.20 0.20 0.20 0.19 0.18 0.18 0.16 0.12 0.09 0.06 0.05 0.04 0.04 0.04 0.03 0.03 0.04 0.06 0.07 0.05 0.03 0.01 0.01 0.01 0.01 0.01 0.01 0.02 0.02 0.03
0.05 0.07 0.09 0.14 0.16 0.21 0.22 0.21 0.25 0.28 0.26 0.21 0.19 0.19 0.21 0.22 0.19 0.16 0.14 0.13 0.12 0.09 0.06 0.05 0.03 0.03 0.03 0.03 0.02 0.02 0.02 0.03 0.03 0.04 0.03 0.02 0.01 0.01 0.01 0.01 0.01 0.01 0.01
0.03 0.06 0.08 0.11 0.15 0.16 0.16 0.19 0.23 0.27 0.26 0.23 0.21 0.20 0.19 0.20 0.21 0.18 0.16 0.13 0.11 0.08 0.05 0.03 0.02 0.01 0.01 0.02 0.02 0.02 0.01 0.01 0.01 0.02 0.02 0.01 0.01 0.01 0.01 0.00 0.00 0.01 0.01
0.03 0.04 0.06 0.08 0.10 0.13 0.14 0.15 0.18 0.19 0.21 0.20 0.19 0.18 0.16 0.17 0.18 0.15 0.11 0.08 0.06 0.04 0.03 0.02 0.01 0.01 0.01 0.01 0.01 0.01 0.01 0.01 0.01 0.01 0.01 0.01 0.01 0.00 0.00 0.00 0.00 0.01 0.01
MSLP
1010.27 1010.42 1010.79 1011.33 1011.93 1012.51 1013.00 1013.36 1013.61 1013.80 1013.97 1014.20 1014.50 1014.89 1015.34 1015.79 1016.19 1016.50 1016.69 1016.78 1016.80 1016.78 1016.79 1016.84 1016.95 1017.10 1017.28 1017.44 1017.55 1017.62 1017.64 1017.64 1017.65 1017.69 1017.78 1017.92 1018.10 1018.29 1018.49 1018.66 1018.80 1018.91 1019.01
1010.27 1010.49 1010.93 1011.51 1012.13 1012.72 1013.21 1013.56 1013.80 1013.98 1014.16 1014.39 1014.71 1015.11 1015.57 1016.02 1016.41 1016.70 1016.86 1016.91 1016.90 1016.87 1016.87 1016.94 1017.09 1017.29 1017.51 1017.70 1017.84 1017.92 1017.93 1017.91 1017.89 1017.92 1018.00 1018.16 1018.36 1018.59 1018.82 1019.01 1019.17 1019.29 1019.38
1010.10 1010.41 1010.92 1011.56 1012.23 1012.85 1013.36 1013.75 1014.01 1014.21 1014.40 1014.65 1014.97 1015.37 1015.80 1016.22 1016.57 1016.81 1016.93 1016.95 1016.92 1016.89 1016.92 1017.03 1017.22 1017.46 1017.72 1017.94 1018.08 1018.15 1018.14 1018.09 1018.05 1018.05 1018.13 1018.29 1018.51 1018.76 1019.02 1019.24 1019.42 1019.55 1019.64
1009.83 1010.23 1010.80 1011.50 1012.23 1012.90 1013.47 1013.90 1014.21 1014.45 1014.68 1014.94 1015.26 1015.63 1016.03 1016.40 1016.70 1016.89 1016.97 1016.98 1016.95 1016.95 1017.01 1017.16 1017.40 1017.68 1017.95 1018.17 1018.30 1018.34 1018.29 1018.21 1018.14 1018.12 1018.19 1018.36 1018.59 1018.86 1019.14 1019.38 1019.57 1019.71 1019.81
1009.55 1010.02 1010.66 1011.41 1012.19 1012.91 1013.52 1014.01 1014.38 1014.67 1014.94 1015.22 1015.54 1015.89 1016.24 1016.56 1016.81 1016.97 1017.04 1017.05 1017.05 1017.09 1017.21 1017.40 1017.67 1017.96 1018.24 1018.43 1018.52 1018.52 1018.43 1018.30 1018.20 1018.17 1018.24 1018.40 1018.65 1018.93 1019.22 1019.47 1019.67 1019.81 1019.91
1009.37 1009.89 1010.56 1011.34 1012.13 1012.88 1013.54 1014.08 1014.50 1014.85 1015.16 1015.46 1015.77 1016.10 1016.42 1016.71 1016.93 1017.07 1017.15 1017.20 1017.25 1017.35 1017.52 1017.76 1018.04 1018.33 1018.57 1018.72 1018.76 1018.69 1018.55 1018.39 1018.27 1018.23 1018.30 1018.48 1018.73 1019.02 1019.30 1019.55 1019.75 1019.88 1019.98
1009.34 1009.88 1010.55 1011.32 1012.10 1012.86 1013.53 1014.10 1014.57 1014.96 1015.30 1015.62 1015.94 1016.25 1016.55 1016.81 1017.02 1017.17 1017.29 1017.39 1017.51 1017.67 1017.90 1018.17 1018.46 1018.73 1018.92 1019.00 1018.97 1018.84 1018.65 1018.46 1018.33 1018.30 1018.39 1018.58 1018.84 1019.14 1019.42 1019.66 1019.84 1019.96 1020.05
1009.47 1009.99 1010.62 1011.34 1012.09 1012.81 1013.48 1014.06 1014.56 1014.98 1015.35 1015.69 1016.01 1016.32 1016.60 1016.85 1017.06 1017.24 1017.40 1017.57 1017.76 1018.00 1018.27 1018.57 1018.85 1019.07 1019.20 1019.21 1019.11 1018.92 1018.69 1018.48 1018.36 1018.34 1018.45 1018.67 1018.96 1019.27 1019.56 1019.79 1019.95 1020.06 1020.13
1009.67 1010.14 1010.71 1011.36 1012.04 1012.73 1013.37 1013.95 1014.46 1014.91 1015.30 1015.65 1015.97 1016.27 1016.54 1016.78 1017.01 1017.22 1017.43 1017.66 1017.92 1018.22 1018.53 1018.84 1019.11 1019.28 1019.35 1019.28 1019.11 1018.87 1018.62 1018.41 1018.29 1018.31 1018.46 1018.71 1019.03 1019.36 1019.66 1019.89 1020.05 1020.14 1020.20
1009.83 1010.24 1010.73 1011.31 1011.92 1012.55 1013.17 1013.75 1014.27 1014.74 1015.15 1015.51 1015.83 1016.12 1016.37 1016.61 1016.84 1017.07 1017.32 1017.60 1017.92 1018.26 1018.61 1018.92 1019.17 1019.30 1019.31 1019.19 1018.96 1018.69 1018.41 1018.20 1018.11 1018.16 1018.35 1018.64 1019.00 1019.36 1019.68 1019.93 1020.09 1020.18 1020.23
1009.82 1010.17 1010.60 1011.11 1011.67 1012.27 1012.87 1013.45 1014.00 1014.49 1014.92 1015.29 1015.61 1015.88 1016.12 1016.33 1016.56 1016.79 1017.06 1017.38 1017.73 1018.10 1018.47 1018.78 1019.01 1019.12 1019.09 1018.93 1018.68 1018.38 1018.10 1017.90 1017.82 1017.90 1018.12 1018.45 1018.84 1019.23 1019.58 1019.86 1020.04 1020.15 1020.20
1009.58 1009.90 1010.29 1010.76 1011.29 1011.88 1012.48 1013.09 1013.66 1014.19 1014.64 1015.03 1015.34 1015.59 1015.81 1016.00 1016.20 1016.42 1016.69 1017.02 1017.38 1017.76 1018.14 1018.46 1018.68 1018.78 1018.74 1018.57 1018.31 1018.01 1017.74 1017.55 1017.49 1017.58 1017.81 1018.16 1018.57 1018.99 1019.36 1019.67 1019.89 1020.02 1020.10
1009.15 1009.45 1009.83 1010.29 1010.82 1011.42 1012.06 1012.70 1013.32 1013.87 1014.36 1014.76 1015.07 1015.31 1015.49 1015.66 1015.82 1016.02 1016.27 1016.58 1016.94 1017.32 1017.70 1018.02 1018.25 1018.37 1018.34 1018.20 1017.96 1017.69 1017.44 1017.26 1017.21 1017.29 1017.52 1017.85 1018.26 1018.68 1019.07 1019.40 1019.65 1019.81 1019.91
1008.62 1008.92 1009.31 1009.79 1010.36 1010.99 1011.66 1012.35 1013.00 1013.60 1014.11 1014.52 1014.83 1015.06 1015.22 1015.36 1015.49 1015.66 1015.88 1016.16 1016.50 1016.87 1017.24 1017.58 1017.83 1017.98 1018.00 1017.92 1017.74 1017.52 1017.30 1017.15 1017.09 1017.16 1017.35 1017.64 1018.01 1018.40 1018.78 1019.12 1019.38 1019.56 1019.69
1008.16 1008.48 1008.89 1009.40 1010.00 1010.66 1011.37 1012.09 1012.78 1013.40 1013.93 1014.35 1014.66 1014.88 1015.03 1015.14 1015.24 1015.38 1015.57 1015.82 1016.13 1016.49 1016.85 1017.20 1017.49 1017.70 1017.80 1017.79 1017.70 1017.56 1017.40 1017.28 1017.22 1017.26 1017.40 1017.63 1017.93 1018.26 1018.59 1018.89 1019.14 1019.33 1019.46
1007.93 1008.27 1008.70 1009.23 1009.84 1010.53 1011.25 1011.97 1012.66 1013.29 1013.81 1014.23 1014.54 1014.76 1014.90 1015.01 1015.10 1015.22 1015.38 1015.60 1015.89 1016.22 1016.58 1016.95 1017.28 1017.55 1017.74 1017.85 1017.87 1017.83 1017.76 1017.69 1017.64 1017.66 1017.74 1017.89 1018.09 1018.33 1018.58 1018.82 1019.03 1019.19 1019.31
1008.07 1008.41 1008.83 1009.35 1009.94 1010.60 1011.29 1011.99 1012.64 1013.24 1013.74 1014.15 1014.46 1014.68 1014.83 1014.94 1015.04 1015.15 1015.30 1015.51 1015.76 1016.08 1016.44 1016.81 1017.19 1017.53 1017.82 1018.05 1018.20 1018.29 1018.32 1018.33 1018.32 1018.32 1018.35 1018.42 1018.52 1018.65 1018.80 1018.95 1019.08 1019.19 1019.27
1008.60 1008.89 1009.27 1009.73 1010.27 1010.85 1011.47 1012.09 1012.67 1013.21 1013.67 1014.05 1014.35 1014.58 1014.76 1014.90 1015.02 1015.15 1015.31 1015.50 1015.74 1016.04 1016.39 1016.77 1017.18 1017.59 1017.97 1018.32 1018.61 1018.84 1018.99 1019.09 1019.14 1019.15 1019.16 1019.16 1019.17 1019.19 1019.23 1019.27 1019.32 1019.36 1019.39
1009.45 1009.67 1009.96 1010.32 1010.74 1011.21 1011.71 1012.21 1012.69 1013.15 1013.55 1013.90 1014.20 1014.45 1014.66 1014.85 1015.02 1015.19 1015.36 1015.56 1015.80 1016.08 1016.41 1016.79 1017.21 1017.67 1018.14 1018.59 1019.01 1019.36 1019.65 1019.85 1019.97 1020.03 1020.03 1020.00 1019.94 1019.88 1019.82 1019.76 1019.72 1019.69 1019.68
1010.48 1010.60 1010.76 1010.98 1011.25 1011.57 1011.92 1012.28 1012.65 1013.01 1013.36 1013.68 1013.98 1014.27 1014.54 1014.79 1015.02 1015.24 1015.46 1015.67 1015.91 1016.17 1016.49 1016.86 1017.28 1017.76 1018.28 1018.81 1019.32 1019.79 1020.18 1020.49 1020.70 1020.81 1020.84 1020.80 1020.72 1020.60 1020.48 1020.36 1020.25 1020.17 1020.11
1011.56 1011.54 1011.55 1011.60 1011.71 1011.86 1012.05 1012.28 1012.54 1012.81 1013.11 1013.42 1013.74 1014.08 1014.41 1014.74 1015.05 1015.34 1015.60 1015.85 1016.09 1016.35 1016.65 1016.99 1017.40 1017.88 1018.41 1018.97 1019.54 1020.07 1020.55 1020.94 1021.23 1021.40 1021.48 1021.47 1021.39 1021.26 1021.12 1020.96 1020.83 1020.72 1020.64
1012.54 1012.38 1012.24 1012.13 1012.07 1012.06 1012.11 1012.22 1012.38 1012.60 1012.87 1013.19 1013.55 1013.94 1014.36 1014.76 1015.16 1015.52 1015.84 1016.12 1016.38 1016.64 1016.92 1017.23 1017.61 1018.05 1018.56 1019.12 1019.69 1020.24 1020.75 1021.19 1021.53 1021.76 1021.89 1021.92 1021.88 1021.78 1021.66 1021.52 1021.39 1021.29 1021.23
1013.37 1013.08 1012.80 1012.54 1012.34 1012.20 1012.14 1012.16 1012.27 1012.47 1012.74 1013.09 1013.51 1013.97 1014.46 1014.95 1015.41 1015.84 1016.22 1016.54 1016.82 1017.08 1017.34 1017.62 1017.96 1018.35 1018.80 1019.30 1019.83 1020.35 1020.84 1021.28 1021.63 1021.90 1022.07 1022.15 1022.16 1022.12 1022.05 1021.96 1021.88 1021.82 1021.79
1014.06 1013.68 1013.28 1012.92 1012.61 1012.39 1012.26 1012.24 1012.34 1012.54 1012.85 1013.25 1013.72 1014.25 1014.80 1015.36 1015.88 1016.36 1016.77 1017.12 1017.42 1017.68 1017.93 1018.18 1018.47 1018.80 1019.18 1019.60 1020.04 1020.48 1020.91 1021.29 1021.62 1021.88 1022.07 1022.20 1022.26 1022.29 1022.28 1022.27 1022.25 1022.25 1022.28
1014.70 1014.26 1013.80 1013.37 1013.01 1012.75 1012.60 1012.58 1012.69 1012.93 1013.28 1013.74 1014.26 1014.84 1015.44 1016.02 1016.58 1017.07 1017.50 1017.86 1018.17 1018.43 1018.66 1018.89 1019.14 1019.40 1019.70 1020.02 1020.36 1020.69 1021.02 1021.32 1021.58 1021.81 1021.99 1022.13 1022.24 1022.33 1022.39 1022.45 1022.50 1022.56 1022.64
1015.40 1014.95 1014.47 1014.02 1013.65 1013.38 1013.24 1013.25 1013.40 1013.68 1014.09 1014.58 1015.15 1015.74 1016.35 1016.93 1017.47 1017.95 1018.37 1018.71 1019.00 1019.25 1019.48 1019.69 1019.90 1020.11 1020.34 1020.57 1020.80 1021.02 1021.23 1021.43 1021.60 1021.76 1021.91 1022.05 1022.18 1022.30 1022.41 1022.53 1022.64 1022.75 1022.86
Thickness
5812 5807 5794 5792 5790 5788 5787 5785 5783 5781 5779 5777 5775 5773 5771 5769 5767 5766 5765 5763 5762 5761 5760 5759 5758 5756 5755 5754 5752 5751 5750 5749 5747 5746 5745 5743 5742 5740 5739 5739 5739 5739 5734
5813 5804 5793 5790 5788 5786 5784 5782 5781 5778 5776 5774 5772 5770 5768 5766 5764 5763 5762 5761 5759 5758 5757 5756 5754 5753 5752 5751 5749 5748 5747 5746 5744 5743 5742 5741 5739 5738 5736 5736 5737 5737 5732
5808 5800 5791 5787 5785 5783 5781 5779 5778 5775 5773 5771 5768 5766 5764 5763 5761 5760 5759 5758 5756 5755 5754 5752 5751 5750 5749 5748 5747 5746 5744 5743 5742 5741 5741 5743 5739 5735 5734 5733 5732 5730 5728
5803 5796 5790 5784 5782 5780 5778 5776 5774 5772 5770 5767 5765 5763 5761 5760 5758 5757 5755 5754 5753 5752 5750 5749 5748 5747 5745 5744 5743 5743 5742 5741 5740 5740 5744 5744 5740 5733 5731 5730 5728 5727 5725
5798 5792 5787 5781 5779 5777 5775 5773 5771 5768 5766 5763 5762 5760 5758 5756 5755 5754 5752 5751 5750 5749 5747 5746 5745 5744 5742 5741 5740 5740 5739 5738 5738 5740 5744 5742 5738 5731 5729 5727 5726 5724 5723
5793 5789 5783 5778 5776 5774 5772 5769 5767 5765 5762 5760 5758 5756 5754 5753 5751 5750 5749 5747 5746 5745 5744 5742 5741 5740 5739 5738 5738 5737 5736 5736 5737 5744 5742 5740 5737 5729 5727 5725 5724 5722 5721
5791 5787 5780 5774 5772 5770 5768 5766 5763 5761 5758 5756 5754 5752 5750 5749 5748 5747 5745 5744 5743 5742 5740 5739 5738 5737 5736 5735 5735 5734 5734 5735 5739 5743 5740 5739 5735 5728 5725 5724 5722 5720 5719
5789 5785 5777 5771 5768 5766 5764 5762 5759 5757 5754 5752 5750 5748 5746 5745 5744 5743 5742 5741 5739 5738 5737 5736 5734 5734 5733 5732 5732 5732 5732 5732 5738 5740 5738 5737 5731 5726 5724 5722 5720 5719 5717
5787 5783 5776 5770 5765 5762 5760 5758 5755 5752 5750 5748 5746 5744 5742 5741 5740 5739 5738 5737 5736 5735 5734 5733 5732 5731 5730 5730 5730 5730 5730 5732 5738 5740 5738 5736 5729 5725 5723 5721 5719 5718 5716
5783 5781 5776 5771 5766 5762 5758 5754 5751 5748 5746 5744 5742 5740 5738 5737 5736 5735 5735 5734 5733 5732 5731 5730 5729 5728 5728 5728 5728 5728 5729 5731 5739 5740 5738 5734 5728 5724 5722 5720 5718 5717 5715
5778 5777 5774 5770 5766 5762 5759 5752 5747 5743 5741 5739 5738 5736 5735 5737 5737 5733 5733 5731 5730 5730 5728 5727 5727 5726 5726 5727 5727 5727 5728 5735 5740 5738 5736 5731 5726 5723 5721 5719 5717 5716 5714
5771 5771 5770 5768 5764 5761 5757 5750 5747 5743 5740 5739 5739 5736 5736 5737 5737 5736 5730 5728 5727 5727 5726 5726 5725 5725 5726 5730 5729 5727 5732 5735 5738 5737 5734 5728 5724 5722 5720 5719 5717 5715 5713
5769 5766 5766 5763 5759 5757 5753 5748 5746 5744 5740 5739 5738 5735 5735 5734 5733 5732 5730 5727 5727 5726 5728 5726 5726 5729 5731 5732 5733 5733 5734 5735 5737 5737 5733 5726 5722 5720 5719 5718 5716 5714 5712
5764 5762 5762 5760 5755 5752 5749 5746 5742 5741 5739 5738 5736 5733 5732 5731 5731 5731 5729 5731 5730 5730 5730 5730 5730 5730 5730 5729 5729 5731 5732 5731 5732 5732 5729 5723 5720 5718 5717 5716 5714 5713 5711
5759 5758 5757 5755 5751 5747 5744 5741 5738 5736 5736 5736 5734 5730 5728 5728 5728 5728 5727 5727 5729 5729 5728 5727 5729 5728 5727 5727 5727 5727 5727 5727 5727 5727 5726 5720 5718 5716 5715 5714 5713 5711 5709
5754 5753 5754 5752 5748 5744 5740 5738 5734 5732 5730 5731 5729 5727 5725 5725 5724 5724 5723 5721 5723 5723 5725 5724 5725 5723 5723 5723 5723 5721 5721 5722 5720 5720 5720 5718 5715 5713 5711 5710 5709 5708 5706
5748 5748 5747 5746 5745 5741 5738 5733 5730 5728 5726 5724 5723 5722 5720 5720 5718 5719 5719 5718 5718 5718 5717 5718 5718 5718 5718 5718 5717 5716 5716 5715 5715 5714 5714 5713 5712 5709 5707 5705 5704 5703 5702
5741 5741 5741 5742 5740 5736 5732 5728 5724 5723 5722 5719 5718 5716 5714 5715 5714 5713 5714 5714 5713 5713 5713 5713 5714 5713 5713 5712 5711 5711 5710 5709 5708 5707 5708 5707 5706 5704 5702 5699 5698 5697 5696
5733 5733 5734 5735 5733 5730 5726 5723 5719 5716 5714 5712 5710 5708 5708 5708 5708 5709 5709 5708 5707 5708 5708 5709 5708 5707 5706 5705 5705 5704 5704 5703 5702 5701 5700 5699 5697 5696 5694 5692 5691 5689 5688
5723 5725 5725 5726 5725 5723 5721 5717 5712 5710 5707 5704 5702 5700 5700 5701 5703 5703 5701 5701 5701 5701 5701 5701 5700 5699 5699 5699 5699 5698 5696 5696 5695 5694 5692 5690 5688 5687 5685 5684 5683 5681 5679
5712 5714 5716 5717 5717 5716 5714 5711 5707 5703 5700 5696 5694 5692 5693 5694 5695 5695 5694 5693 5694 5693 5693 5694 5694 5692 5691 5692 5691 5689 5689 5688 5686 5683 5682 5681 5678 5676 5675 5673 5672 5671 5670
5700 5702 5705 5707 5709 5709 5708 5706 5702 5697 5692 5688 5686 5684 5684 5685 5686 5686 5685 5685 5685 5685 5685 5685 5685 5685 5684 5682 5684 5683 5681 5678 5675 5673 5671 5669 5667 5665 5663 5661 5660 5659 5658
5688 5691 5695 5697 5700 5701 5700 5698 5693 5688 5684 5679 5677 5673 5673 5674 5674 5675 5676 5677 5676 5677 5676 5675 5675 5675 5674 5672 5673 5675 5673 5671 5666 5661 5657 5656 5654 5653 5651 5649 5648 5646 5645
5676 5680 5683 5686 5689 5691 5691 5690 5686 5682 5675 5670 5667 5664 5663 5663 5663 5664 5666 5666 5666 5665 5664 5664 5664 5666 5666 5665 5662 5660 5660 5659 5657 5652 5647 5645 5642 5639 5638 5636 5635 5633 5632
5665 5669 5672 5675 5677 5678 5679 5678 5675 5671 5666 5660 5657 5655 5653 5652 5652 5653 5654 5654 5654 5653 5652 5651 5652 5653 5654 5654 5652 5651 5649 5647 5646 5644 5640 5635 5632 5628 5625 5624 5622 5620 5618
5655 5658 5661 5663 5663 5664 5665 5665 5664 5660 5655 5651 5648 5645 5643 5641 5640 5641 5642 5642 5641 5640 5639 5638 5639 5639 5639 5638 5638 5638 5637 5637 5634 5633 5630 5625 5622 5618 5614 5611 5610 5607 5605